DW0835 Weather Reports


time (UTC)temp
F
wind
direction
speed
knots
gust
knots
rain 1hr
in
rain 24hr
in
rain mn
in
humidity
%
barometer
mb
20260906140529 73 0.0 0.0 0.00 0.01 0.00 76 1019.8
20260906135518 73 0.0 0.0 0.00 0.01 0.00 75 1019.8
20260906134529 74 0.0 0.0 0.00 0.01 0.00 74 1019.9
20260906133529 75 0.0 0.0 0.00 0.01 0.00 72 1019.8
20260906132518 75 0.0 0.0 0.00 0.01 0.00 74 1019.5
20260906131529 74 0.0 0.0 0.00 0.01 0.00 75 1019.5
20260906130529 73 0.0 0.9 0.00 0.01 0.00 76 1019.2
20260906125609 72 0.0 0.0 0.00 0.01 0.00 80 1019.2
20260906124517 70 0.0 0.0 0.00 0.01 0.00 85 1019.1
20260906123529 69 0.0 0.0 0.00 0.01 0.00 89 1019.0
20260906122530 67 0.0 0.0 0.00 0.01 0.00 93 1018.7
20260906121518 65 0.0 0.0 0.00 0.01 0.00 93 1018.6
20260906120529 65 0.0 0.0 0.00 0.01 0.00 93 1018.5
20260906115517 65 0.0 0.0 0.00 0.01 0.00 93 1018.5
20260906114518 65 0.0 0.0 0.00 0.01 0.00 93 1018.5
20260906113529 65 0.0 0.0 0.00 0.01 0.00 93 1018.1
20260906112517 65 0.0 0.0 0.00 0.01 0.00 93 1018.0
20260906111549 65 0.0 0.0 0.00 0.01 0.00 93 1018.0
20260906110518 65 0.0 0.0 0.00 0.01 0.00 93 1017.8
20260906105529 65 0.0 0.0 0.00 0.01 0.00 93 1017.9
20260906104517 65 0.0 0.0 0.00 0.01 0.00 93 1017.9
20260906103518 65 0.0 0.0 0.00 0.01 0.00 93 1018.0
20260906102549 65 0.0 0.0 0.00 0.01 0.00 93 1017.7
20260906101517 65 0.0 0.0 0.00 0.01 0.00 93 1017.7
20260906100609 65 0.0 0.0 0.00 0.01 0.00 93 1017.8
20260906095519 65 0.0 0.0 0.00 0.01 0.00 93 1017.6
20260906094529 65 0.0 0.0 0.00 0.01 0.00 93 1017.6
20260906093530 65 0.0 0.0 0.00 0.01 0.00 93 1017.5
20260906092529 65 0.0 0.0 0.00 0.01 0.00 93 1017.6
20260906091529 65 0.0 0.0 0.00 0.01 0.00 93 1017.6
20260906090519 65 0.0 0.0 0.00 0.01 0.00 92 1017.7
20260906085519 65 0.0 0.0 0.00 0.01 0.00 92 1017.7
20260906084551 65 0.0 0.0 0.00 0.01 0.00 92 1017.7
20260906083558 66 0.0 0.0 0.00 0.01 0.00 92 1017.5
20260906082518 66 0.0 0.0 0.00 0.01 0.00 92 1017.5
20260906081531 66 0.0 0.0 0.00 0.01 0.00 92 1017.5
20260906080550 66 0.0 0.0 0.00 0.01 0.00 92 1017.6
20260906075531 66 0.0 0.0 0.00 0.01 0.00 92 1017.4
20260906074539 66 0.0 0.0 0.00 0.01 0.00 92 1017.4
20260906073530 67 0.0 0.0 0.00 0.01 0.00 92 1017.2
20260906072530 67 0.0 0.0 0.00 0.01 0.00 92 1017.2
20260906071530 67 0.0 0.0 0.00 0.01 0.00 92 1017.2
20260906070530 67 0.0 0.0 0.00 0.01 0.00 92 1017.3
20260906065530 67 0.0 0.0 0.00 0.01 0.00 92 1017.5
20260906064610 68 0.0 0.0 0.00 0.01 0.00 93 1017.5
20260906063519 68 0.0 0.0 0.00 0.01 0.00 93 1017.5
20260906062530 68 0.0 0.0 0.00 0.01 0.00 93 1017.4
20260906061530 68 0.0 0.0 0.00 0.01 0.00 93 1017.4
20260906060530 68 0.0 0.0 0.00 0.01 0.00 93 1017.1
20260906055519 68 0.0 0.0 0.00 0.01 0.00 93 1017.2
20260906054530 68 0.0 0.0 0.00 0.01 0.00 93 1017.2
20260906053530 68 0.0 0.0 0.00 0.01 0.00 93 1017.4
20260906052539 68 0.0 0.0 0.00 0.01 0.00 93 1017.1
20260906051530 68 0.0 0.0 0.00 0.01 0.00 93 1017.1
20260906050530 67 0.0 0.0 0.00 0.01 0.00 93 1016.9
20260906045549 67 0.0 0.0 0.00 0.01 0.01 93 1017.0
20260906044530 67 0.0 0.0 0.00 0.01 0.01 93 1017.0
20260906043548 67 0.0 0.0 0.00 0.01 0.01 93 1016.7
20260906042517 67 0.0 0.0 0.00 0.01 0.01 92 1016.5
20260906041549 67 0.0 0.0 0.00 0.01 0.01 92 1016.5
20260906040530 67 0.0 0.0 0.00 0.01 0.01 92 1016.7
20260906035519 67 0.0 0.0 0.00 0.01 0.01 92 1016.8
20260906034529 67 0.0 0.0 0.00 0.01 0.01 91 1016.8
20260906033528 67 0.0 0.9 0.00 0.01 0.01 91 1016.6
20260906032519 67 0.0 0.0 0.00 0.01 0.01 91 1016.6
20260906031551 68 0.0 0.0 0.00 0.01 0.01 90 1016.6
20260906030517 68 0.0 1.7 0.00 0.01 0.01 90 1016.7
20260906025530 68 0.0 1.7 0.00 0.01 0.01 90 1016.5
20260906024630 68 0.0 1.7 0.00 0.01 0.01 90 1016.5
20260906023528 68 0.0 2.6 0.00 0.01 0.01 90 1016.5
20260906022530 68 0.0 2.6 0.00 0.01 0.01 89 1016.5
20260906021548 68 0.0 0.9 0.00 0.01 0.01 89 1016.5
20260906020530 68 0.0 2.6 0.00 0.01 0.01 88 1016.4
20260906015530 68 0.0 1.7 0.00 0.01 0.01 88 1016.5
20260906014530 68 0.0 0.0 0.00 0.01 0.01 89 1016.5
20260906013530 68 0.0 0.9 0.00 0.01 0.01 89 1016.4
20260906012530 68 0.0 0.9 0.00 0.01 0.01 90 1016.4
20260906011519 68 0.0 0.0 0.00 0.01 0.01 90 1016.5
20260906010530 68 0.0 0.0 0.00 0.01 0.01 90 1016.2
20260906005530 68 0.0 0.0 0.00 0.01 0.01 91 1016.2
20260906004519 68 0.0 0.9 0.00 0.01 0.01 91 1016.1
20260906003530 68 0.0 0.9 0.00 0.01 0.01 91 1016.1
20260906002530 68 0.0 0.9 0.00 0.01 0.01 91 1016.4
20260906001519 68 0.0 1.7 0.00 0.01 0.01 92 1016.4
20260906000530 68 0.0 1.7 0.00 0.01 0.01 92 1016.4
20260905235530 68 0.0 0.0 0.00 0.01 0.01 91 1016.3
20260905234522 68 0.0 0.0 0.00 0.01 0.01 91 1016.3
20260905233548 68 0.0 0.9 0.00 0.01 0.01 91 1016.4
20260905232550 68 0.0 0.9 0.00 0.01 0.01 92 1016.4
20260905231550 69 0.0 0.9 0.00 0.01 0.01 91 1016.4
20260905230518 69 0.0 0.9 0.01 0.01 0.01 92 1016.4
20260905225530 69 0.0 0.0 0.01 0.01 0.01 91 1016.4
20260905224530 69 0.0 0.9 0.01 0.01 0.01 91 1016.4
20260905223530 69 0.0 1.7 0.01 0.01 0.01 91 1016.2
20260905222529 69 0.0 0.9 0.01 0.01 0.01 90 1015.9
20260905221538 69 0.0 1.7 0.01 0.01 0.01 90 1015.9
20260905220549 69 0.0 1.7 0.00 0.00 0.00 90 1015.9
20260905215538 69 0.0 0.9 0.00 0.00 0.00 90 1015.9
20260905214530 69 0.0 0.9 0.00 0.00 0.00 90 1015.9
20260905213518 70 0.0 1.7 0.00 0.00 0.00 89 1015.9
20260905212530 70 0.0 0.9 0.00 0.00 0.00 89 1015.8
20260905211529 70 0.0 0.9 0.00 0.00 0.00 90 1015.8
20260905210529 70 0.0 1.7 0.00 0.00 0.00 89 1015.8
20260905205518 70 0.0 0.9 0.00 0.00 0.00 89 1015.7
20260905204529 70 0.0 0.9 0.00 0.00 0.00 90 1015.6
20260905203529 70 0.0 1.7 0.00 0.00 0.00 90 1015.6
20260905202529 70 0.0 0.9 0.00 0.00 0.00 90 1015.8
20260905201529 70 0.0 0.9 0.00 0.00 0.00 89 1015.8
20260905200518 71 0.0 0.0 0.00 0.00 0.00 89 1015.7
20260905195538 71 0.0 0.9 0.00 0.00 0.00 89 1015.5
20260905194549 71 0.0 0.9 0.00 0.00 0.00 89 1015.6
20260905193529 71 0.0 0.9 0.00 0.00 0.00 91 1015.5
20260905192549 71 0.0 0.9 0.00 0.00 0.00 90 1015.5
20260905191529 71 0.0 1.7 0.00 0.00 0.00 91 1015.5
20260905190518 71 0.0 0.0 0.00 0.00 0.00 91 1015.7
20260905185518 71 0.0 0.9 0.00 0.00 0.00 92 1015.6
20260905184529 71 0.0 0.0 0.00 0.00 0.00 92 1015.6
20260905183529 71 0.0 0.0 0.00 0.00 0.00 93 1015.6
20260905182518 71 0.0 0.9 0.00 0.00 0.00 93 1015.5
20260905181529 70 0.0 0.0 0.00 0.00 0.00 93 1015.5
20260905180529 70 0.0 1.7 0.00 0.00 0.00 93 1015.4
20260905175518 70 0.0 0.9 0.00 0.00 0.00 94 1015.5
20260905174518 70 0.0 0.0 0.00 0.00 0.00 94 1015.5
20260905173518 70 0.0 0.9 0.00 0.00 0.00 94 1015.5
20260905172529 70 0.0 0.9 0.00 0.00 0.00 95 1015.4
20260905171529 69 0.0 0.9 0.00 0.00 0.00 95 1015.4
20260905170518 69 0.0 0.0 0.00 0.00 0.00 95 1015.5
20260905165517 69 0.0 0.9 0.00 0.00 0.00 95 1015.7
20260905164517 69 0.0 0.9 0.00 0.00 0.00 95 1015.7
20260905163518 70 0.0 0.9 0.00 0.00 0.00 95 1015.5
20260905162529 70 0.0 0.0 0.00 0.00 0.00 96 1015.5
20260905161529 70 0.0 0.0 0.00 0.00 0.00 95 1015.5
20260905160519 69 0.0 0.0 0.00 0.00 0.00 95 1015.4
20260905155537 69 0.0 0.0 0.00 0.00 0.00 96 1015.4
20260905154529 69 0.0 1.7 0.00 0.02 0.00 95 1015.4
20260905153527 69 0.0 0.9 0.00 0.02 0.00 96 1015.4
20260905152528 69 0.0 0.9 0.00 0.02 0.00 95 1015.3
20260905151529 69 0.0 0.9 0.00 0.02 0.00 96 1015.3
20260905150549 69 0.0 1.7 0.00 0.02 0.00 96 1015.2
20260905145551 68 0.0 0.9 0.00 0.02 0.00 95 1014.9
20260905144531 68 0.0 0.9 0.00 0.02 0.00 95 1014.9
20260905143529 68 0.0 0.0 0.00 0.09 0.00 95 1014.6
20260905142529 68 0.0 0.9 0.00 0.09 0.00 95 1014.6
20260905141519 68 0.0 0.0 0.00 0.10 0.00 95 1014.6